Location: ???????
(55.4362°N, 38.1183°E)
Time: 12:26:26
(UTC+00:00)

Cosmos 2219 Rocket - Pass Details

Date: 23 October 2021
Orbit: 826 x 848 km, 71.0° (Epoch: 01 December)

Event Time Altitude Azimuth Distance (km) Brightness Sun altitude
Exits shadow 00:09:21 16° 345° (NNW) 2,074 4.4 -34.1°
Maximum altitude 00:12:31 25° 28° (NNE) 1,646 4.1 -33.7°
Drops below altitude 10° 00:17:08 10° 83° (E) 2,467 5.3 -33.2°
Sets 00:20:02 0° 97° (E) 3,403 6.0 -32.8°
